College Park, MD

9:12 PM EDT on April 25, 2018 (GMT -0400)
College Park

Weather History for KCGS - May, 2013

Change the Weather History Date:

Thursday, May 23, 2013

  Actual Average Record
Temperature  
Mean Temperature 75 °F -  
Max Temperature 84 °F 79 °F 94 °F (1964)
Min Temperature 66 °F 56 °F 39 °F (1954)
Cooling Degree Days 10    
Growing Degree Days 25 (Base 50)    
Moisture  
Dew Point 69 °F    
Average Humidity 82    
Maximum Humidity 100    
Minimum Humidity 55    
Precipitation  
Precipitation 0.00 in - - ()
Sea Level Pressure  
Sea Level Pressure 29.85 in    
Wind  
Wind Speed 3 mph (South)    
Max Wind Speed 9 mph    
Max Gust Speed 22 mph    
Visibility 10 miles    
Events      
Averages and records for this station are not official NWS values.
T = Trace of Precipitation, MM = Missing Value Source: NWS Daily Summary

Daily Weather History Graph

Daily Weather History Graph

Search for Another Location

Airport or City:

Astronomy

May. 23, 2013 Rise Set
Actual Time 5:48 AM EDT 8:20 PM EDT
Civil Twilight 5:17 AM EDT 8:51 PM EDT
Nautical Twilight 4:39 AM EDT 9:29 PM EDT
Astronomical Twilight 3:57 AM EDT 10:12 PM EDT
Moon 6:51 PM EDT (5/23) 4:31 AM EDT (5/23)
Length of Visible Light 15h 33m
Length of Day
14h 32m
Waxing Gibbous, 97% of the Moon is Illuminated
May 23
Waxing Gibbous
May 25
Full
May 31
Last Quarter
Jun 8
New
Jun 16
First Quarter

Hourly Weather History & Observations

Time (EDT) Temp. Heat Index Dew Point Humidity Pressure Visibility Wind Dir Wind Speed Gust Speed Precip Events Conditions
12:00 AM 70.3 °F - 68.4 °F 93% 29.91 in 10.0 mi Calm Calm - N/A   Scattered Clouds
12:20 AM 70.2 °F - 68.9 °F 96% 29.92 in 10.0 mi Calm Calm - N/A   Scattered Clouds
12:40 AM 70.2 °F - 69.4 °F 98% 29.91 in 10.0 mi Calm Calm - N/A   Mostly Cloudy
1:00 AM 70.0 °F - 69.4 °F 98% 29.90 in 10.0 mi Calm Calm - N/A   Scattered Clouds
1:20 AM 69.1 °F - 69.1 °F 100% 29.89 in 10.0 mi Calm Calm - N/A   Clear
1:40 AM 68.2 °F - 68.2 °F 100% 29.89 in 10.0 mi Calm Calm - N/A   Clear
2:00 AM 67.6 °F - 67.6 °F 100% 29.88 in 10.0 mi Calm Calm - N/A   Clear
2:20 AM 68.0 °F - 68.0 °F 100% 29.88 in 10.0 mi Calm Calm - N/A   Scattered Clouds
2:40 AM 68.0 °F - 68.0 °F 100% 29.87 in 10.0 mi Calm Calm - N/A   Scattered Clouds
3:00 AM 67.8 °F - 67.8 °F 100% 29.87 in 10.0 mi Calm Calm - N/A   Scattered Clouds
3:20 AM 68.4 °F - 68.4 °F 100% 29.87 in 10.0 mi Calm Calm - N/A   Clear
3:40 AM 68.7 °F - 68.7 °F 100% 29.87 in 10.0 mi Calm Calm - N/A   Scattered Clouds
4:00 AM 72.1 °F - 70.3 °F 94% 29.87 in 10.0 mi South 3.5 mph - N/A   Overcast
4:20 AM 72.7 °F - 70.3 °F 92% 29.88 in 10.0 mi South 3.5 mph - N/A   Overcast
4:40 AM 73.4 °F - 69.8 °F 88% 29.88 in 10.0 mi SSW 5.8 mph - N/A   Overcast
5:00 AM 73.4 °F - 69.8 °F 88% 29.88 in 10.0 mi SSW 3.5 mph - N/A   Mostly Cloudy
5:20 AM 73.0 °F - 69.8 °F 90% 29.88 in 10.0 mi South 5.8 mph - N/A   Scattered Clouds
5:40 AM 73.0 °F - 69.8 °F 90% 29.89 in 10.0 mi South 3.5 mph - N/A   Mostly Cloudy
6:00 AM 72.7 °F - 70.0 °F 91% 29.88 in 10.0 mi Calm Calm - N/A   Mostly Cloudy
6:20 AM 72.7 °F - 70.2 °F 92% 29.89 in 10.0 mi Calm Calm - N/A   Mostly Cloudy
6:40 AM 72.9 °F - 70.7 °F 93% 29.89 in 10.0 mi South 4.6 mph - N/A   Overcast
7:00 AM 72.7 °F - 70.7 °F 93% 29.89 in 10.0 mi South 3.5 mph - N/A   Overcast
7:20 AM 73.4 °F - 70.9 °F 92% 29.89 in 10.0 mi Calm Calm - N/A   Overcast
7:40 AM 73.6 °F - 71.1 °F 92% 29.89 in 10.0 mi South 5.8 mph - N/A   Overcast
8:00 AM 74.3 °F - 70.7 °F 88% 29.89 in 10.0 mi South 6.9 mph - N/A   Overcast
8:20 AM 74.5 °F - 70.7 °F 88% 29.89 in 10.0 mi South 5.8 mph - N/A   Overcast
8:40 AM 74.7 °F - 70.2 °F 86% 29.89 in 10.0 mi SSW 3.5 mph - N/A   Overcast
9:00 AM 74.8 °F - 70.0 °F 85% 29.89 in 10.0 mi SSW 3.5 mph - N/A   Overcast
9:20 AM 75.6 °F - 70.0 °F 83% 29.89 in 10.0 mi South 6.9 mph - N/A   Mostly Cloudy
9:40 AM 75.6 °F - 69.8 °F 82% 29.90 in 10.0 mi South 4.6 mph - N/A   Mostly Cloudy
10:00 AM 76.1 °F - 69.1 °F 79% 29.89 in 10.0 mi South 6.9 mph - N/A   Mostly Cloudy
10:20 AM 76.5 °F - 69.1 °F 78% 29.89 in 10.0 mi South 5.8 mph - N/A   Overcast
10:40 AM 76.8 °F - 69.3 °F 77% 29.89 in 10.0 mi SSW 5.8 mph - N/A   Mostly Cloudy
11:00 AM 77.7 °F - 69.3 °F 75% 29.89 in 10.0 mi South 9.2 mph - N/A   Mostly Cloudy
11:20 AM 77.9 °F - 68.9 °F 74% 29.89 in 10.0 mi SSW 5.8 mph - N/A   Mostly Cloudy
11:40 AM 77.4 °F - 68.4 °F 74% 29.89 in 10.0 mi South 4.6 mph - N/A   Overcast
12:00 PM 78.1 °F - 68.9 °F 73% 29.89 in 10.0 mi South 5.8 mph - N/A   Overcast
12:20 PM 79.0 °F - 69.3 °F 72% 29.89 in 10.0 mi SW 3.5 mph - N/A   Mostly Cloudy
12:40 PM 78.8 °F - 68.9 °F 72% 29.88 in 10.0 mi Calm Calm - N/A   Overcast
1:00 PM 78.8 °F - 68.4 °F 70% 29.88 in 10.0 mi SSW 5.8 mph - N/A   Overcast
1:20 PM 78.8 °F - 68.0 °F 69% 29.87 in 10.0 mi South 8.1 mph - N/A   Mostly Cloudy
1:40 PM 78.6 °F - 68.2 °F 70% 29.86 in 10.0 mi South 9.2 mph - N/A   Mostly Cloudy
2:00 PM 78.8 °F - 67.6 °F 68% 29.86 in 10.0 mi South 8.1 mph - N/A   Mostly Cloudy
2:20 PM 80.2 °F 82.6 °F 67.1 °F 64% 29.85 in 10.0 mi SSW 6.9 mph - N/A   Scattered Clouds
2:40 PM 82.2 °F 84.9 °F 67.6 °F 61% 29.84 in 10.0 mi South 6.9 mph - N/A   Scattered Clouds
3:00 PM 81.5 °F 84.1 °F 67.5 °F 62% 29.83 in 10.0 mi SSW 5.8 mph - N/A   Mostly Cloudy
3:20 PM 82.8 °F 85.3 °F 66.9 °F 59% 29.81 in 10.0 mi South 8.1 mph 16.1 mph N/A   Scattered Clouds
3:40 PM 83.3 °F 85.9 °F 67.1 °F 58% 29.80 in 10.0 mi South 5.8 mph - N/A   Mostly Cloudy
4:00 PM 83.7 °F 86.0 °F 66.4 °F 56% 29.80 in 10.0 mi SSW 4.6 mph - N/A   Scattered Clouds
4:20 PM 84.7 °F 87.4 °F 67.1 °F 55% 29.78 in 10.0 mi South 8.1 mph - N/A   Scattered Clouds
4:40 PM 83.5 °F 85.7 °F 66.2 °F 56% 29.78 in 10.0 mi South 5.8 mph - N/A   Mostly Cloudy
4:55 PM 82.8 °F 85.3 °F 67.1 °F 59% 29.78 in 10.0 mi South 6.9 mph - N/A   Mostly Cloudy
5:20 PM 81.9 °F 84.2 °F 66.7 °F 60% 29.78 in 10.0 mi South 9.2 mph - N/A   Mostly Cloudy
5:40 PM 79.5 °F - 69.1 °F 70% 29.78 in 10.0 mi South 5.8 mph 21.9 mph N/A   Mostly Cloudy
6:00 PM 78.8 °F - 69.3 °F 72% 29.77 in 10.0 mi South 4.6 mph - N/A   Overcast
6:20 PM 79.2 °F - 69.1 °F 71% 29.76 in 10.0 mi South 9.2 mph - N/A   Scattered Clouds
6:40 PM 78.6 °F - 68.7 °F 72% 29.76 in 10.0 mi South 5.8 mph - N/A   Scattered Clouds
7:00 PM 77.9 °F - 69.4 °F 75% 29.76 in 10.0 mi South 5.8 mph - N/A   Mostly Cloudy
7:20 PM 77.4 °F - 70.0 °F 78% 29.78 in 10.0 mi SSE 5.8 mph - N/A   Overcast
7:40 PM 77.2 °F - 70.2 °F 79% 29.78 in 10.0 mi South 3.5 mph - N/A   Overcast
8:00 PM 77.2 °F - 70.2 °F 79% 29.78 in 10.0 mi South 4.6 mph - N/A   Overcast
8:20 PM 77.0 °F - 70.3 °F 80% 29.77 in 10.0 mi SSE 5.8 mph - N/A   Overcast
8:40 PM 76.1 °F - 68.7 °F 78% 29.78 in 10.0 mi NNW 9.2 mph - N/A   Overcast
9:00 PM 72.5 °F - 65.7 °F 79% 29.78 in 10.0 mi NW 3.5 mph - N/A   Overcast
9:20 PM 72.1 °F - 66.0 °F 81% 29.78 in 10.0 mi North 3.5 mph - N/A   Overcast
9:40 PM 69.3 °F - 67.1 °F 93% 29.78 in 10.0 mi Calm Calm - N/A   Overcast
10:00 PM 68.9 °F - 67.8 °F 96% 29.78 in 10.0 mi NNW 4.6 mph - N/A   Overcast
10:20 PM 68.9 °F - 68.4 °F 98% 29.77 in 5.0 mi NNW 6.9 mph - N/A   Overcast
10:40 PM 68.5 °F - 68.0 °F 98% 29.77 in 10.0 mi Calm Calm - N/A   Overcast
11:00 PM 68.0 °F - 68.0 °F 100% 29.80 in 1.5 mi West 9.2 mph - N/A   Overcast
11:20 PM 66.6 °F - 66.6 °F 100% 29.81 in 1.8 mi WNW 3.5 mph - N/A   Overcast
11:40 PM 66.7 °F - 66.7 °F 100% 29.81 in 10.0 mi Calm Calm - N/A   Overcast